| time (UTC) | temp C | wind direction | speed KPH | gust KPH | rain 1hr cm | rain 24hr cm | rain mn cm | humidity % | barometer mb |
| 20260502163031 | 5 | 88 | 8.0 | 11.3 | 0.00 | 0.00 | 0.00 | 55 | 1017.3 |
| 20260502161530 | 5 | 95 | 3.2 | 14.5 | 0.00 | 0.00 | 0.00 | 60 | 1017.5 |
| 20260502151520 | 5 | 352 | 4.8 | 20.9 | 0.00 | 0.00 | 0.00 | 55 | 1017.6 |
| 20260502123037 | 2 | 16 | 4.8 | 12.9 | 0.00 | 0.00 | 0.00 | 75 | 1018.4 |
| 20260502121533 | 2 | 12 | 4.8 | 11.3 | 0.00 | 0.00 | 0.00 | 77 | 1018.4 |
| 20260502114555 | 1 | 315 | 8.0 | 17.7 | 0.00 | 0.00 | 0.00 | 82 | 1018.3 |
| 20260502113149 | 1 | 321 | 6.4 | 16.1 | 0.00 | 0.00 | 0.00 | 83 | 1018.3 |
| 20260502111555 | 1 | 285 | 4.8 | 14.5 | 0.00 | 0.00 | 0.00 | 83 | 1018.2 |
| 20260502110048 | -17 | 0.0 | 0.0 | 0.00 | 0.00 | 0.00 | 1018.1 | ||
| 20260502104543 | -17 | 0.0 | 0.0 | 0.00 | 0.00 | 0.00 | 1017.9 | ||
| 20260502103037 | -17 | 0.0 | 0.0 | 0.00 | 0.00 | 0.00 | 1017.7 | ||
| 20260502101527 | -17 | 0.0 | 0.0 | 0.00 | 0.00 | 0.00 | 1017.8 | ||
| 20260502071526 | 2 | 336 | 4.8 | 9.7 | 0.00 | 0.00 | 0.00 | 72 | 1017.3 |
| 20260502070025 | 2 | 335 | 3.2 | 11.3 | 0.00 | 0.00 | 0.00 | 71 | 1017.3 |
| 20260502064529 | 3 | 354 | 6.4 | 12.9 | 0.00 | 0.00 | 0.00 | 71 | 1017.4 |
| 20260502063024 | 3 | 349 | 6.4 | 14.5 | 0.00 | 0.00 | 0.00 | 70 | 1017.4 |
| 20260502063022 | 3 | 348 | 6.4 | 14.5 | 0.00 | 0.00 | 0.00 | 70 | 1017.4 |
| 20260502061522 | 3 | 332 | 6.4 | 11.3 | 0.00 | 0.00 | 0.00 | 71 | 1017.4 |
| 20260502060023 | 3 | 348 | 4.8 | 9.7 | 0.00 | 0.00 | 0.00 | 73 | 1017.4 |
| 20260502054517 | 3 | 333 | 4.8 | 11.3 | 0.00 | 0.00 | 0.00 | 70 | 1017.3 |
| 20260502053016 | 4 | 360 | 6.4 | 20.9 | 0.00 | 0.00 | 0.00 | 65 | 1017.3 |
| 20260502051515 | 4 | 359 | 12.9 | 22.5 | 0.00 | 0.00 | 0.00 | 66 | 1017.2 |
| 20260502050014 | 4 | 360 | 9.7 | 24.1 | 0.00 | 0.00 | 0.00 | 62 | 1017.2 |
| 20260502044510 | 5 | 356 | 16.1 | 22.5 | 0.00 | 0.00 | 0.00 | 64 | 1017.2 |
| 20260502043014 | 5 | 356 | 19.3 | 24.1 | 0.00 | 0.00 | 0.00 | 60 | 1017.1 |
| 20260502041509 | 4 | 342 | 6.4 | 12.9 | 0.00 | 0.00 | 0.00 | 66 | 1017.1 |
| 20260502040012 | 4 | 340 | 4.8 | 9.7 | 0.00 | 0.00 | 0.00 | 62 | 1017.0 |
| 20260502034502 | 4 | 340 | 4.8 | 16.1 | 0.00 | 0.00 | 0.00 | 59 | 1016.9 |
| 20260502033003 | 5 | 330 | 3.2 | 17.7 | 0.00 | 0.00 | 0.00 | 57 | 1016.9 |
| 20260502031600 | 5 | 346 | 8.0 | 20.9 | 0.00 | 0.00 | 0.00 | 57 | 1016.8 |
| 20260502030100 | 5 | 356 | 6.4 | 17.7 | 0.00 | 0.00 | 0.00 | 60 | 1016.7 |
| 20260502024535 | 5 | 324 | 4.8 | 20.9 | 0.00 | 0.00 | 0.00 | 59 | 1016.7 |
| 20260502023028 | 5 | 338 | 8.0 | 14.5 | 0.00 | 0.00 | 0.00 | 58 | 1016.6 |
| 20260502021524 | 5 | 353 | 3.2 | 20.9 | 0.00 | 0.00 | 0.00 | 59 | 1016.6 |
| 20260502020023 | 5 | 350 | 4.8 | 9.7 | 0.00 | 0.00 | 0.00 | 57 | 1016.6 |
| 20260502014523 | 5 | 352 | 6.4 | 16.1 | 0.00 | 0.00 | 0.00 | 57 | 1016.4 |
| 20260502013020 | 5 | 354 | 6.4 | 16.1 | 0.00 | 0.00 | 0.00 | 57 | 1016.3 |
| 20260502011604 | 6 | 1 | 8.0 | 27.4 | 0.00 | 0.00 | 0.00 | 61 | 1016.1 |
| 20260502010048 | 6 | 352 | 12.9 | 24.1 | 0.00 | 0.00 | 0.00 | 62 | 1016.0 |
| 20260502004556 | 6 | 342 | 8.0 | 16.1 | 0.00 | 0.00 | 0.00 | 53 | 1015.8 |
| 20260502003042 | 6 | 326 | 4.8 | 14.5 | 0.00 | 0.00 | 0.00 | 52 | 1015.8 |
| 20260502001539 | 6 | 332 | 6.4 | 17.7 | 0.00 | 0.00 | 0.00 | 52 | 1015.7 |
| 20260502000045 | 6 | 325 | 9.7 | 20.9 | 0.00 | 0.00 | 0.00 | 51 | 1015.5 |
| 20260501234539 | 6 | 333 | 9.7 | 20.9 | 0.00 | 0.00 | 0.00 | 51 | 1015.4 |
| 20260501233037 | 6 | 356 | 9.7 | 17.7 | 0.00 | 0.00 | 0.00 | 51 | 1015.4 |
| 20260501231539 | 6 | 324 | 8.0 | 0.0 | 0.00 | 0.00 | 0.00 | 50 | 1015.2 |
| 20260501230030 | 6 | 347 | 4.8 | 19.3 | 0.00 | 0.00 | 0.00 | 51 | 1015.1 |
| 20260501224527 | 6 | 324 | 8.0 | 20.9 | 0.00 | 0.00 | 0.00 | 51 | 1015.1 |
| 20260501223026 | 6 | 356 | 6.4 | 20.9 | 0.00 | 0.00 | 0.00 | 49 | 1015.0 |
| 20260501221526 | 6 | 6 | 12.9 | 24.1 | 0.00 | 0.00 | 0.00 | 49 | 1014.9 |
| 20260501220038 | 6 | 6 | 14.5 | 29.0 | 0.00 | 0.00 | 0.00 | 55 | 1014.8 |
| 20260501214524 | 6 | 12 | 22.5 | 32.2 | 0.00 | 0.00 | 0.00 | 54 | 1014.6 |
| 20260501213029 | 7 | 13 | 20.9 | 32.2 | 0.00 | 0.00 | 0.00 | 55 | 1014.6 |
| 20260501211522 | 7 | 8 | 27.4 | 32.2 | 0.00 | 0.00 | 0.00 | 54 | 1014.4 |
| 20260501210022 | 7 | 1 | 16.1 | 24.1 | 0.00 | 0.00 | 0.00 | 48 | 1014.3 |
| 20260501204517 | 7 | 305 | 11.3 | 19.3 | 0.00 | 0.00 | 0.00 | 49 | 1014.3 |
| 20260501203019 | 7 | 354 | 8.0 | 19.3 | 0.00 | 0.00 | 0.00 | 48 | 1014.1 |
| 20260501201513 | 7 | 354 | 11.3 | 17.7 | 0.00 | 0.00 | 0.00 | 51 | 1014.1 |
| 20260501200011 | 6 | 94 | 8.0 | 14.5 | 0.00 | 0.00 | 0.00 | 57 | 1014.1 |
| 20260501194508 | 6 | 99 | 1.6 | 8.0 | 0.00 | 0.00 | 0.00 | 59 | 1014.2 |
| 20260501193017 | 6 | 110 | 3.2 | 12.9 | 0.00 | 0.00 | 0.00 | 60 | 1014.1 |
| 20260501191504 | 6 | 122 | 4.8 | 12.9 | 0.00 | 0.00 | 0.00 | 62 | 1014.3 |
| 20260501190002 | 6 | 111 | 4.8 | 12.9 | 0.00 | 0.00 | 0.00 | 64 | 1014.3 |
| 20260501184600 | 6 | 104 | 4.8 | 12.9 | 0.00 | 0.00 | 0.00 | 65 | 1014.3 |
| 20260501183102 | 6 | 90 | 4.8 | 14.5 | 0.00 | 0.05 | 0.00 | 62 | 1014.3 |
| 20260501181655 | 6 | 110 | 11.3 | 17.7 | 0.00 | 0.05 | 0.00 | 65 | 1014.3 |
| 20260501180053 | 6 | 98 | 12.9 | 17.7 | 0.00 | 0.05 | 0.00 | 68 | 1014.3 |
| 20260501174550 | 5 | 101 | 11.3 | 14.5 | 0.00 | 0.05 | 0.00 | 67 | 1014.3 |
| 20260501173016 | 5 | 81 | 6.4 | 11.3 | 0.00 | 0.05 | 0.00 | 68 | 1014.4 |